Meath Environmental Platform

Observations for Trim Patrick St

Time AQI Temp °C Hum % Pres Pa CO μg/m³ H₂S μg/m³ NO μg/m³ NO₂ μg/m³ O₃ μg/m³ SO₂ μg/m³ PM1 μg/m³ PM2.5 μg/m³ PM10 μg/m³
Friday 28 August 2026
11:29 2 23.6 73 38,460 0.08 0 2.17 0 22.15 6.73 16.57 21.4 23.54
11:28 2 23.6 72 38,460 0.11 0 2.12 0 38.59 6.4 14 22.9 25.19
11:27 2 23.6 70 38,460 0.14 0 2.05 0 36.42 6.06 18.29 25.31 27.84
11:26 2 23.6 70 38,460 0.18 0 2.05 0 8.78 7.5 15.71 25.31 27.84
11:24 2 23.6 72 38,460 0.21 0 2.13 0.14 30.57 7.54 17.43 24.32 26.75
11:21 2 23.4 74 38,460 0.13 0 2.14 3.31 56.84 5.91 16.57 22.02 24.22
11:20 2 23.3 73 38,460 0.11 0 2.05 0 45.53 5.79 18.29 25.74 28.32
11:19 2 23.2 74 38,460 0.11 0 2.09 0 48.86 5.86 18.29 26.99 29.69
11:18 2 23 74 38,460 0.11 0 2.05 0 41.12 6.15 18.29 24.89 27.38
11:17 2 22.9 74 38,460 0.07 0.61 2.06 3.55 58 5.97 16.57 22 24.2
11:16 2 22.6 73 38,460 0.05 0 1.93 5.2 45.52 5.72 15.71 22.86 25.14
11:15 2 22.4 74 38,460 0.02 0 1.95 0.63 54.97 6.05 17.43 25.62 26.01
11:14 2 22.2 74 38,460 0.01 0 1.97 0.53 46.14 5.35 17.43 25.56 28.11
11:13 2 22.1 75 38,460 0 0 2.01 0 52.9 5.37 19.14 26.81 29.49
11:12 2 21.9 76 38,460 0 0 1.99 0 46.18 4.69 18.29 26.79 29.47
11:11 2 21.8 75 38,460 0.02 0 1.96 0 40.48 5.57 17.43 26.17 28.78
11:10 2 21.7 76 38,460 0.02 0 2 0 52.4 5.9 18.29 25.33 27.86
11:09 2 21.5 76 38,460 0.04 0 1.96 0 53.81 6.15 19.14 28.13 28.98
11:08 2 21.6 75 38,460 0.01 0 1.91 0.16 49.23 5.2 19.14 26.85 29.54
11:07 2 21.5 75 38,460 0 0 1.88 0.42 43.44 5.34 17.43 26.18 27.18